THORAD AGENA D DEB, 22532

Orbit data source: Space-Track

THORAD AGENA D DEB, 22532 is space debris in SSO originally from a launch on Wed, 08 Apr 1970 UTC launched from the Air Force Western Test Range (AFWTR). Debris objects in space refer to the collection of defunct objects orbiting the Earth. Examples of debris include non-operational satellites, rocket bodies, and fragments generated from explosions, collisions, or faulty payload assembly.

Loading next visibility...
Identifier
22532, 1970-025QN
Orbit
SSO
Country
Flag of USUS
Related business
Manufacturer
Unknown
Mission
Spacecraft
Bus & Motor
Unknown
Mass
Unknown
Launch date (UTC)
1970-04-08 (56 years ago)
Launch vehicle
Unknown
Launch site
Air Force Western Test Range (AFWTR)
Object type
Payload
Rocket body
Debris
Shape & HBR
Unknown shape, 0.1 m
Radar Cross Section
Medium (>0.1 m² and <1 m²)

Expand to show TLE details & history
Last TLE update: 2 days ago

TLE from 2 days ago
0 THORAD AGENA D DEB
1 22532U 70025QN  26171.45507067  .00000849  00000-0  10139-2 0  9996
2 22532 100.0936   0.5496 0003033 205.5480 215.4640 13.70478950653103
Epoch: 2026-06-20T10:55Z
TLE epoch observation values (Epoch: 2026-06-20T10:55:18.105Z)
Latitude
59.52664°
Longitude
-89.46053°
Altitude
1,009.683 km
Speed
7.352 km/s
True Right ascension
22h 52m 08s
True Declination
59° 22' 52"
Sunlit
Object was in daylight at epoch
Visualization orbit readout
Latitude
Unknown
Longitude
Unknown
Altitude
Unknown
Speed
Unknown
Apparent Right ascension
Unknown
Apparent Declination
Unknown
Sunlit
N/A
Visualization observer readout
Local Sidereal Time
08:39:53
Azimuth
Unknown
Elevation
Unknown
Doppler factor
Unknown
Orbital elements
Apogee altitude
997.383 km
Perigee altitude
992.911 km
Semi-major axis
7,373.284 km
Eccentricity
0.0003
Inclination
100.0936°
RAAN
0.5496°
Arg. of periapsis
205.548°
True anomaly
215.44384°
Mean anomaly
215.464°
Eccentric anomaly
215.45392°
Mean motion
3.42809 °/min
Orbital period
105.01 mins
BSTAR
0.0010139

Documentation

Showing up to 5 results
|